Weather History for New Bern, NC

Change the Weather History Date:

Saturday, March 16, 2013

  Actual Average Record
Temperature  
Mean Temperature 66 °F 53 °F  
Max Temperature 81 °F 65 °F 86 °F (2002)
Min Temperature 50 °F 42 °F 25 °F (1993)
Degree Days  
Heating Degree Days 0 12  
Month to date heating degree days 246 223  
Since 1 July heating degree days 2172 2369  
Cooling Degree Days 1 0  
Month to date cooling degree days 1 0  
Year to date cooling degree days 8 3  
Growing Degree Days 16 (Base 50)    
Moisture  
Dew Point 44 °F    
Average Humidity 45    
Maximum Humidity 60    
Minimum Humidity 30    
Precipitation  
Precipitation 0.00 in 0.15 in 1.55 in (2004)
Month to date precipitation 0.93 2.35  
Year to date precipitation 7.07 10.03  
Snow  
Snow 0.00 in - - ()
Month to date snowfall 0.0  
Since 1 July snowfall T  
Snow Depth -    
Sea Level Pressure  
Sea Level Pressure 29.83 in    
Wind  
Wind Speed 10 mph (SW)    
Max Wind Speed 17 mph    
Max Gust Speed 24 mph    
Visibility 10 miles    
Events      
T = Trace of Precipitation, MM = Missing Value Source: NWS Daily Summary

Daily Weather History Graph

Daily Weather History Graph

Search for Another Location

Airport:

Trip Planner

Search our weather history database for the weather conditions in past years. The results will help you decide how hot, cold, wet, or windy it might be!

Date:

Astronomy

Mar. 16, 2013 Rise Set
Actual Time 7:17 AM EDT 7:16 PM EDT
Civil Twilight 6:51 AM EDT 7:42 PM EDT
Nautical Twilight 6:22 AM EDT 8:11 PM EDT
Astronomical Twilight 5:52 AM EDT 8:41 PM EDT
Moon 9:56 AM EDT (3/16) No Moon Set
Length of Visible Light 12h 50m
Length of Day
11h 59m
Waxing Crescent, 23% of the Moon is Illuminated
Mar 16
Waxing Crescent
Mar 19
First Quarter
Mar 27
Full
Apr 3
Last Quarter
Apr 10
New

Hourly Weather History & Observations

Time (EDT) Temp. Dew Point Humidity Pressure Visibility Wind Dir Wind Speed Gust Speed Precip Events Conditions
12:54 AM 50.0 °F 36.0 °F 59% 29.95 in 10.0 mi SSW 6.9 mph - N/A   Clear
1:54 AM 51.1 °F 37.9 °F 61% 29.93 in 10.0 mi SW 6.9 mph - N/A   Clear
2:54 AM 55.0 °F 39.0 °F 55% 29.91 in 10.0 mi SW 9.2 mph - N/A   Clear
3:54 AM 57.0 °F 39.9 °F 53% 29.89 in 10.0 mi SW 9.2 mph - N/A   Clear
4:54 AM 57.0 °F 41.0 °F 55% 29.88 in 10.0 mi WSW 6.9 mph - N/A   Clear
5:54 AM 57.0 °F 41.0 °F 55% 29.88 in 10.0 mi SW 6.9 mph - N/A   Clear
6:54 AM 57.0 °F 41.0 °F 55% 29.88 in 10.0 mi SW 6.9 mph - N/A   Clear
7:54 AM 60.1 °F 41.0 °F 49% 29.89 in 10.0 mi WSW 8.1 mph - N/A   Scattered Clouds
8:54 AM 61.0 °F 42.1 °F 50% 29.88 in 10.0 mi WSW 9.2 mph 17.3 mph N/A   Scattered Clouds
9:54 AM 63.0 °F 43.0 °F 48% 29.88 in 10.0 mi WSW 10.4 mph 18.4 mph N/A   Scattered Clouds
10:54 AM 68.0 °F 44.1 °F 42% 29.87 in 10.0 mi West 16.1 mph 21.9 mph N/A   Partly Cloudy
11:54 AM 72.0 °F 46.0 °F 40% 29.84 in 10.0 mi WSW 9.2 mph - N/A   Clear
12:54 PM 75.9 °F 46.0 °F 35% 29.83 in 10.0 mi West 6.9 mph - N/A   Partly Cloudy
1:54 PM 78.1 °F 46.0 °F 32% 29.79 in 10.0 mi West 12.7 mph 17.3 mph N/A   Clear
2:54 PM 79.0 °F 46.0 °F 31% 29.75 in 10.0 mi West 11.5 mph - N/A   Clear
3:54 PM 81.0 °F 46.0 °F 29% 29.73 in 10.0 mi WSW 12.7 mph 24.2 mph N/A   Clear
4:54 PM 79.0 °F 50.0 °F 36% 29.71 in 10.0 mi South 13.8 mph 19.6 mph N/A   Clear
5:54 PM 73.9 °F 52.0 °F 46% 29.71 in 10.0 mi South 13.8 mph - N/A   Clear
6:54 PM 69.1 °F 51.1 °F 53% 29.71 in 10.0 mi South 9.2 mph - N/A   Clear
7:54 PM 68.0 °F 48.0 °F 49% 29.74 in 10.0 mi SSW 12.7 mph - N/A   Clear
8:54 PM 66.9 °F 48.0 °F 51% 29.77 in 10.0 mi SW 12.7 mph - N/A   Clear
9:54 PM 64.0 °F 48.0 °F 56% 29.81 in 10.0 mi SSW 9.2 mph - N/A   Clear
10:54 PM 63.0 °F 48.0 °F 58% 29.85 in 10.0 mi SW 3.5 mph - N/A   Overcast
11:54 PM 61.0 °F 46.9 °F 60% 29.86 in 10.0 mi SSW 5.8 mph - N/A   Scattered Clouds